Other Surface Observations
Issued by NWS Charleston, SC

Home | Current Version | Previous Version | Text Only | Print | Product List | Glossary On
Versions: 1 2 3 4 5 6 7 8 9 10 11 12 13 14 15 16 17 18 19 20 21 22 23 24 25 26 27 28 29 30 31 32 33 34 35 36 37 38 39 40 41 42 43 44 45 46 47 48 49 50
000
SXUS52 KCHS 012225
OSOCHS

MARINE OBSERVATIONS
NATIONAL WEATHER SERVICE CHARLESTON SC
600 PM EDT WED OCT 01 2014

...DOWNTOWN CHARLESTON AND HARBOR...

CITY           SKY/WX    TMP DP  RH WIND       PRES   REMARKS
WATERFRONT PRK   N/A     81 N/A N/A E9          N/A
FORT JOHNSON   NOT AVBL

...LAKE MOULTRIE...

CITY           SKY/WX    TMP DP  RH WIND       PRES   REMARKS
PINOPOLIS        N/A     93  63  36 MISG      29.90R HX  94

...LAKE AND SUPPLEMENTAL COASTAL OBSERVATIONS...

STATION/POSITION TIME  TEMP    WIND        PRES    WAVE   SWELL
                       AIR SEA DIR/SP/G            HT/PER HT/PER/DIR
                 (UTC) (F)     (DEG/KT/KT) (MB)    (FT/S) (FT/S/D)
FORT PULASKI     2200   78      80/  8/  9 1015.5R
SAPELO ISLAND    NOT AVBL
UPR LAKE MARION  NOT AVBL
WINYAH BAY       2200   77     130/  5     1015.0S
LAKE MURRAY      2100   86     210/  2/  2 1013.9S
ACE BASIN NERRS  2200   78     140/  2     1016.0R


...C-MAN AND BUOY OBSERVATIONS...

STATION/POSITION TIME  TEMP    WIND        PRES    WAVE   SWELL
                       AIR SEA DIR/SP/G            HT/PER HT/PER/DIR
                 (UTC) (F)     (DEG/KT/KT) (MB)    (FT/S) (FT/S/D)
BUOY 41004       2200   77 81   40/  8/ 10 1014.7R   3/ 6   2/ 6
BUOY 41008       2200   77 79   50/ 12/ 14 1014.6S   2/ 6   2/ 60/ 6
FOLLY BEACH CMAN 2200   76      90/  9/ 10 1015.6R
CAPERS NS BUOY   2100   77     110/  8/ 10   N/A
FRIPP NS BUOY    NOT AVBL
5E ST. MARYS GA  NOT AVBL
FRYING PAN BUOY  NOT AVBL
BUOY 41025       2200   72     350/ 17/ 19 1014.6R   3/ 7   2/ 50/ 7
CAPE LOOKOUT NC  2200   74      50/ 11/ 13 1014.7R
BUOY 41002       2107   80 81   20/ 10/ 12 1012.8    4/ 6   3/ 20/ 6
BUOY 41010       2200   80 85   10/  6/  8 1013.1R   3/ 7   3/ 10/ 7
BUOY 41012       NOT AVBL
ST AUGUSTINE FL  2200   78      60/ 12/ 14 1014.6R


$$



USA.gov is the U.S. government's official web portal to all federal, state and local government web resources and services.